Location: Colle Santa Colomba
(42.0333°N, 12.5667°E)
Time: 03:43:33
(UTC+00:00)

OAO 3 Rocket - Pass Details

Date: 25 October 2021
Orbit: 628 x 682 km, 35.0° (Epoch: 28 November)

Event Time Altitude Azimuth Distance (km) Brightness Sun altitude
Rises 18:08:26 0° 242° (WSW) 2,952 7.5 -22.1°
Reaches altitude 10° 18:10:58 10° 233° (SW) 2,053 6.4 -22.5°
Enters shadow 18:15:12 32° 171° (S) 1,125 4.2 -23.3°
